2023/08/24 00:00:00, 0.1,22.7
2023/08/24 00:10:00, 0.1,22.6
2023/08/24 00:20:00, 0.1,22.7
2023/08/24 00:30:00, 0.1,22.5
2023/08/24 00:40:00, 0.1,22.5
2023/08/24 00:50:00, 0.1,22.3
2023/08/24 01:00:00, 0.1,22.4
2023/08/24 01:10:00, 0.1,22.5
2023/08/24 01:20:00, 0.1,22.5
2023/08/24 01:30:00, 0.1,22.4
2023/08/24 01:40:00, 0.1,22.5
2023/08/24 01:50:00, 0.1,22.6
2023/08/24 02:00:00, 0.1,22.4
2023/08/24 02:10:00, 0.1,22.2
2023/08/24 02:20:00, 0.2,22.4
2023/08/24 02:30:00, 0.2,21.9
2023/08/24 02:40:00, 0.2,22.2
2023/08/24 02:50:00, 0.2,22.5
2023/08/24 03:00:00, 0.2,22.5
2023/08/24 03:10:00, 0.1,22.3
2023/08/24 03:20:00, 0.1,22.2
2023/08/24 03:30:00, 0.2,21.9
2023/08/24 03:40:00, 0.2,21.9
2023/08/24 03:50:00, 0.2,21.5
2023/08/24 04:00:00, 0.2,21.5
2023/08/24 04:10:00, 0.2,21.5
2023/08/24 04:20:00, 0.2,21.4
2023/08/24 04:30:00, 0.2,21.3
2023/08/24 04:40:00, 0.2,21.2
2023/08/24 04:50:00, 0.2,21.2
2023/08/24 05:00:00, 0.2,21.3
2023/08/24 05:10:00, 0.2,21.2
2023/08/24 05:20:00, 0.2,21.1
2023/08/24 05:30:00, 0.2,21.0
2023/08/24 05:40:00, 0.2,21.2
2023/08/24 05:50:00, 0.2,21.2
2023/08/24 06:00:00, 0.2,21.2
2023/08/24 06:10:00, 0.2,21.4
2023/08/24 06:20:00, 0.2,21.2
2023/08/24 06:30:00, 0.2,21.3
2023/08/24 06:40:00, 0.2,21.7
2023/08/24 06:50:00, 0.2,21.5
2023/08/24 07:00:00, 0.1,21.8
2023/08/24 07:10:00, 0.1,22.5
2023/08/24 07:20:00, 0.1,23.0
2023/08/24 07:30:00, 0.1,23.7
2023/08/24 07:40:00, 0.1,23.7
2023/08/24 07:50:00, 0.1,24.3
2023/08/24 08:00:00, 0.1,24.0
2023/08/24 08:10:00, 0.2,23.8
2023/08/24 08:20:00, 0.1,24.6
2023/08/24 08:30:00, 0.0,25.0
2023/08/24 08:40:00, 0.0,26.0
2023/08/24 08:50:00, 0.0,26.4
2023/08/24 09:00:00, 0.0,27.0
2023/08/24 09:10:00, 0.0,27.8
2023/08/24 09:20:00, 0.2,28.6
2023/08/24 09:30:00, 0.2,29.8
2023/08/24 09:40:00, 0.1,30.6
2023/08/24 09:50:00, 0.1,30.6
2023/08/24 10:00:00, 0.2,31.4
2023/08/24 10:10:00, 0.2,31.5
2023/08/24 10:20:00, 0.2,31.1
2023/08/24 10:30:00, 0.2,31.3
2023/08/24 10:40:00, 0.1,32.8
2023/08/24 10:50:00, 0.2,33.2
2023/08/24 11:00:00, 0.1,33.5
2023/08/24 11:10:00, 0.1,34.2
2023/08/24 11:20:00, 0.2,34.2
2023/08/24 11:30:00, 0.2,32.2
2023/08/24 11:40:00, 0.2,33.2
2023/08/24 11:50:00, 0.2,34.0
2023/08/24 12:00:00, 0.3,31.4
2023/08/24 12:10:00, 0.3,31.5
2023/08/24 12:20:00, 0.2,33.9
2023/08/24 12:30:00, 0.3,31.7
2023/08/24 12:40:00, 0.3,30.2
2023/08/24 12:50:00, 0.2,30.8
2023/08/24 13:00:00, 0.2,28.7
2023/08/24 13:10:00, 0.0,28.9
2023/08/24 13:20:00, 0.0,29.6
2023/08/24 13:30:00, 0.0,31.5
2023/08/24 13:40:00, 0.0,31.6
2023/08/24 13:50:00, 0.2,31.5
2023/08/24 14:00:00, 0.3,31.2
2023/08/24 14:10:00, 0.2,32.1
2023/08/24 14:20:00, 0.2,32.8
2023/08/24 14:30:00, 0.2,32.5
2023/08/24 14:40:00, 0.3,31.3
2023/08/24 14:50:00, 0.3,31.6
2023/08/24 15:00:00, 0.3,30.1
2023/08/24 15:10:00, 0.3,30.3
2023/08/24 15:20:00, 0.3,30.4
2023/08/24 15:30:00, 0.2,29.6
2023/08/24 15:40:00, 0.1,29.7
2023/08/24 15:50:00, 0.0,30.4
2023/08/24 16:00:00, 0.2,30.1
2023/08/24 16:10:00, 0.1,29.3
2023/08/24 16:20:00, 0.0,30.7
2023/08/24 16:30:00, 0.1,31.0
2023/08/24 16:40:00, 0.1,31.3
2023/08/24 16:50:00, 0.1,30.9
2023/08/24 17:00:00, 0.1,30.8
2023/08/24 17:10:00, 0.1,31.4
2023/08/24 17:20:00, 0.1,29.8
2023/08/24 17:30:00, 0.0,28.9
2023/08/24 17:40:00, 0.0,27.9
2023/08/24 17:50:00, 0.0,27.7
2023/08/24 18:00:00, 0.0,27.3
2023/08/24 18:10:00, 0.0,26.8
2023/08/24 18:20:00, 0.1,26.5
2023/08/24 18:30:00, 0.1,26.4
2023/08/24 18:40:00, 0.1,26.1
2023/08/24 18:50:00, 0.1,25.9
2023/08/24 19:00:00, 0.1,25.6
2023/08/24 19:10:00, 0.1,25.4
2023/08/24 19:20:00, 0.0,25.3
2023/08/24 19:30:00, 0.0,25.6
2023/08/24 19:40:00, 0.0,25.5
2023/08/24 19:50:00, 0.0,25.6
2023/08/24 20:00:00, 0.0,25.3
2023/08/24 20:10:00, 0.0,25.4
2023/08/24 20:20:00, 0.0,24.6
2023/08/24 20:30:00, 0.0,24.8
2023/08/24 20:40:00, 0.1,24.4
2023/08/24 20:50:00, 0.1,24.5
2023/08/24 21:00:00, 0.1,24.6
2023/08/24 21:10:00, 0.2,24.8
2023/08/24 21:20:00, 0.2,23.5
2023/08/24 21:30:00, 0.1,24.1
2023/08/24 21:40:00, 0.1,24.1
2023/08/24 21:50:00, 0.1,24.0
2023/08/24 22:00:00, 0.1,23.9
2023/08/24 22:10:00, 0.0,23.9
2023/08/24 22:20:00, 0.0,24.0
2023/08/24 22:30:00, 0.0,24.2
2023/08/24 22:40:00, 0.1,25.0
2023/08/24 22:50:00, 0.1,25.5
2023/08/24 23:00:00, 0.1,25.4
2023/08/24 23:10:00, 0.1,25.6
2023/08/24 23:20:00, 0.1,25.1
2023/08/24 23:30:00, 0.2,25.1
2023/08/24 23:40:00, 0.1,25.2
2023/08/24 23:50:00, 0.2,25.0
